| time (UTC) | temp F | wind direction | speed MPH | gust MPH | rain 1hr in | rain 24hr in | rain mn in | humidity % | barometer mb |
| 20260506091016 | 64 | 188 | 2.0 | 8.0 | 0.00 | 0.00 | 0.00 | 60 | 1007.7 |
| 20260506090520 | 64 | 215 | 3.0 | 9.0 | 0.00 | 0.00 | 0.00 | 59 | 1007.7 |
| 20260506090042 | 64 | 198 | 1.0 | 9.0 | 0.00 | 0.00 | 0.00 | 59 | 1007.9 |
| 20260506085517 | 64 | 296 | 3.0 | 9.0 | 0.00 | 0.00 | 0.00 | 59 | 1008.1 |
| 20260506085017 | 64 | 203 | 4.0 | 13.0 | 0.00 | 0.00 | 0.00 | 59 | 1008.0 |
| 20260506084533 | 64 | 0 | 4.0 | 13.0 | 0.00 | 0.00 | 0.00 | 59 | 1007.9 |
| 20260506084022 | 64 | 0 | 2.0 | 8.0 | 0.00 | 0.00 | 0.00 | 58 | 1007.9 |
| 20260506083518 | 64 | 201 | 2.0 | 8.0 | 0.00 | 0.00 | 0.00 | 58 | 1007.8 |
| 20260506083040 | 64 | 237 | 1.0 | 8.0 | 0.00 | 0.00 | 0.00 | 58 | 1007.8 |
| 20260506082516 | 64 | 232 | 2.0 | 6.0 | 0.00 | 0.00 | 0.00 | 57 | 1007.8 |
| 20260506082018 | 65 | 172 | 2.0 | 8.0 | 0.00 | 0.00 | 0.00 | 57 | 1007.8 |
| 20260506081531 | 65 | 203 | 3.0 | 8.0 | 0.00 | 0.00 | 0.00 | 57 | 1007.8 |
| 20260506081020 | 65 | 190 | 1.0 | 7.0 | 0.00 | 0.00 | 0.00 | 56 | 1007.8 |
| 20260506080517 | 65 | 181 | 3.0 | 9.0 | 0.00 | 0.00 | 0.00 | 56 | 1007.9 |
| 20260506073520 | 65 | 166 | 3.0 | 10.0 | 0.00 | 0.00 | 0.00 | 54 | 1008.1 |
| 20260506073035 | 65 | 192 | 4.0 | 10.0 | 0.00 | 0.00 | 0.00 | 54 | 1008.0 |
| 20260506072517 | 65 | 187 | 3.0 | 9.0 | 0.00 | 0.00 | 0.00 | 54 | 1008.2 |
| 20260506072015 | 66 | 155 | 1.0 | 14.0 | 0.00 | 0.00 | 0.00 | 54 | 1008.1 |
| 20260506071534 | 66 | 204 | 2.0 | 14.0 | 0.00 | 0.00 | 0.00 | 53 | 1008.1 |
| 20260506071017 | 66 | 198 | 1.0 | 9.0 | 0.00 | 0.00 | 0.00 | 53 | 1008.0 |
| 20260506070516 | 65 | 205 | 3.0 | 10.0 | 0.00 | 0.00 | 0.00 | 53 | 1008.1 |
| 20260506062015 | 65 | 202 | 2.0 | 9.0 | 0.00 | 0.00 | 0.00 | 53 | 1008.7 |
| 20260506061531 | 65 | 161 | 3.0 | 8.0 | 0.00 | 0.00 | 0.00 | 53 | 1008.8 |
| 20260506061016 | 65 | 213 | 2.0 | 6.0 | 0.00 | 0.00 | 0.00 | 53 | 1008.8 |
| 20260506060517 | 66 | 202 | 2.0 | 10.0 | 0.00 | 0.00 | 0.00 | 53 | 1008.9 |
| 20260506051016 | 67 | 235 | 3.0 | 8.0 | 0.00 | 0.00 | 0.00 | 49 | 1008.9 |
| 20260506050514 | 67 | 186 | 3.0 | 12.0 | 0.00 | 0.00 | 0.00 | 49 | 1009.0 |
| 20260506045014 | 67 | 278 | 2.0 | 8.0 | 0.00 | 0.00 | 0.00 | 48 | 1009.1 |
| 20260506044535 | 67 | 129 | 1.0 | 8.0 | 0.00 | 0.00 | 0.00 | 48 | 1009.1 |
| 20260506044013 | 67 | 150 | 2.0 | 8.0 | 0.00 | 0.00 | 0.00 | 47 | 1009.1 |
| 20260506043518 | 67 | 235 | 2.0 | 9.0 | 0.00 | 0.00 | 0.00 | 47 | 1009.2 |
| 20260506043034 | 67 | 257 | 2.0 | 9.0 | 0.00 | 0.00 | 0.00 | 47 | 1009.1 |
| 20260506042518 | 67 | 0 | 0.0 | 9.0 | 0.00 | 0.00 | 0.00 | 47 | 1009.1 |
| 20260506042015 | 67 | 0 | 1.0 | 9.0 | 0.00 | 0.00 | 0.00 | 48 | 1009.1 |
| 20260506041532 | 67 | 215 | 3.0 | 9.0 | 0.00 | 0.00 | 0.00 | 47 | 1009.1 |
| 20260506041015 | 67 | 202 | 1.0 | 5.0 | 0.00 | 0.00 | 0.00 | 47 | 1009.2 |
| 20260506040516 | 67 | 11 | 0.0 | 8.0 | 0.00 | 0.00 | 0.00 | 48 | 1009.2 |
| 20260506040045 | 68 | 0 | 1.0 | 8.0 | 0.00 | 0.00 | 0.00 | 47 | 1009.2 |
| 20260506035516 | 68 | 195 | 3.0 | 9.0 | 0.00 | 0.00 | 0.00 | 47 | 1009.3 |
| 20260506035016 | 68 | 0 | 0.0 | 9.0 | 0.00 | 0.00 | 0.00 | 47 | 1009.2 |
| 20260506034533 | 68 | 330 | 2.0 | 11.0 | 0.00 | 0.00 | 0.00 | 47 | 1009.2 |
| 20260506034014 | 68 | 0 | 0.0 | 11.0 | 0.00 | 0.00 | 0.00 | 47 | 1009.2 |
| 20260506033514 | 68 | 203 | 0.0 | 9.0 | 0.00 | 0.00 | 0.00 | 46 | 1009.2 |
| 20260506033032 | 68 | 225 | 3.0 | 9.0 | 0.00 | 0.00 | 0.00 | 46 | 1009.2 |
| 20260506032514 | 68 | 194 | 1.0 | 7.0 | 0.00 | 0.00 | 0.00 | 46 | 1009.1 |
| 20260506032017 | 68 | 324 | 2.0 | 7.0 | 0.00 | 0.00 | 0.00 | 46 | 1009.0 |
| 20260506031533 | 69 | 214 | 2.0 | 10.0 | 0.00 | 0.00 | 0.00 | 46 | 1009.1 |
| 20260506031017 | 69 | 183 | 1.0 | 10.0 | 0.00 | 0.00 | 0.00 | 45 | 1009.1 |
| 20260506030515 | 69 | 5 | 3.0 | 8.0 | 0.00 | 0.00 | 0.00 | 45 | 1009.2 |
| 20260506030031 | 69 | 207 | 2.0 | 9.0 | 0.00 | 0.00 | 0.00 | 45 | 1009.1 |
| 20260506025515 | 69 | 207 | 0.0 | 9.0 | 0.00 | 0.00 | 0.00 | 45 | 1009.2 |
| 20260506025016 | 69 | 196 | 4.0 | 9.0 | 0.00 | 0.00 | 0.00 | 45 | 1009.2 |
| 20260506024541 | 69 | 0 | 3.0 | 11.0 | 0.00 | 0.00 | 0.00 | 45 | 1009.2 |
| 20260506024017 | 69 | 271 | 3.0 | 11.0 | 0.00 | 0.00 | 0.00 | 45 | 1009.2 |
| 20260506023529 | 70 | 227 | 2.0 | 8.0 | 0.00 | 0.00 | 0.00 | 45 | 1009.3 |
| 20260506023032 | 70 | 238 | 2.0 | 8.0 | 0.00 | 0.00 | 0.00 | 44 | 1009.3 |
| 20260506022515 | 70 | 227 | 1.0 | 7.0 | 0.00 | 0.00 | 0.00 | 44 | 1009.3 |
| 20260506022015 | 70 | 250 | 3.0 | 7.0 | 0.00 | 0.00 | 0.00 | 43 | 1009.3 |
| 20260506021546 | 70 | 213 | 1.0 | 14.0 | 0.00 | 0.00 | 0.00 | 44 | 1009.3 |
| 20260506021016 | 71 | 136 | 4.0 | 14.0 | 0.00 | 0.00 | 0.00 | 44 | 1009.3 |
| 20260506020521 | 71 | 202 | 4.0 | 12.0 | 0.00 | 0.00 | 0.00 | 43 | 1009.4 |
| 20260506020030 | 71 | 0 | 0.0 | 5.0 | 0.00 | 0.00 | 0.00 | 43 | 1009.3 |
| 20260506015517 | 71 | 0 | 1.0 | 10.0 | 0.00 | 0.00 | 0.00 | 43 | 1009.3 |
| 20260506015017 | 71 | 185 | 2.0 | 10.0 | 0.00 | 0.00 | 0.00 | 42 | 1009.2 |
| 20260506014530 | 71 | 0 | 2.0 | 10.0 | 0.00 | 0.00 | 0.00 | 42 | 1009.2 |
| 20260506014014 | 71 | 249 | 3.0 | 13.0 | 0.00 | 0.00 | 0.00 | 41 | 1009.1 |
| 20260506013516 | 71 | 0 | 3.0 | 13.0 | 0.00 | 0.00 | 0.00 | 41 | 1009.0 |
| 20260506013032 | 71 | 330 | 0.0 | 7.0 | 0.00 | 0.00 | 0.00 | 42 | 1009.0 |
| 20260506012516 | 72 | 175 | 2.0 | 11.0 | 0.00 | 0.00 | 0.00 | 41 | 1008.9 |
| 20260506012017 | 72 | 0 | 1.0 | 11.0 | 0.00 | 0.00 | 0.00 | 42 | 1008.9 |
| 20260506011540 | 72 | 167 | 2.0 | 9.0 | 0.00 | 0.00 | 0.00 | 41 | 1008.8 |
| 20260506011015 | 72 | 352 | 1.0 | 11.0 | 0.00 | 0.00 | 0.00 | 42 | 1008.7 |
| 20260506010518 | 72 | 307 | 1.0 | 11.0 | 0.00 | 0.00 | 0.00 | 41 | 1008.7 |
| 20260506010045 | 72 | 317 | 0.0 | 7.0 | 0.00 | 0.00 | 0.00 | 41 | 1008.5 |
| 20260506005516 | 72 | 228 | 2.0 | 10.0 | 0.00 | 0.00 | 0.00 | 41 | 1008.5 |
| 20260506005017 | 73 | 176 | 3.0 | 14.0 | 0.00 | 0.00 | 0.00 | 41 | 1008.4 |
| 20260506004532 | 73 | 219 | 1.0 | 14.0 | 0.00 | 0.00 | 0.00 | 41 | 1008.5 |
| 20260506004014 | 73 | 188 | 2.0 | 9.0 | 0.00 | 0.00 | 0.00 | 41 | 1008.5 |
| 20260506003515 | 73 | 209 | 2.0 | 9.0 | 0.00 | 0.00 | 0.00 | 40 | 1008.4 |
| 20260506003033 | 73 | 0 | 3.0 | 9.0 | 0.00 | 0.00 | 0.00 | 40 | 1008.3 |
| 20260506002517 | 73 | 0 | 1.0 | 11.0 | 0.00 | 0.00 | 0.00 | 41 | 1008.3 |
| 20260506002016 | 73 | 248 | 4.0 | 12.0 | 0.00 | 0.00 | 0.00 | 41 | 1008.2 |
| 20260506001530 | 73 | 223 | 5.0 | 12.0 | 0.00 | 0.00 | 0.00 | 41 | 1008.1 |
| 20260506001015 | 73 | 215 | 2.0 | 9.0 | 0.00 | 0.00 | 0.00 | 40 | 1008.1 |
| 20260506000517 | 73 | 0 | 2.0 | 9.0 | 0.00 | 0.00 | 0.00 | 40 | 1008.2 |
| 20260506000034 | 73 | 194 | 3.0 | 9.0 | 0.00 | 0.00 | 0.00 | 40 | 1008.1 |
| 20260505235516 | 73 | 0 | 1.0 | 7.0 | 0.00 | 0.00 | 0.00 | 40 | 1008.1 |
| 20260505235016 | 73 | 196 | 3.0 | 7.0 | 0.00 | 0.00 | 0.00 | 40 | 1008.0 |
| 20260505234552 | 73 | 227 | 1.0 | 6.0 | 0.00 | 0.00 | 0.00 | 39 | 1008.0 |
| 20260505234016 | 73 | 186 | 1.0 | 10.0 | 0.00 | 0.00 | 0.00 | 39 | 1008.0 |
| 20260505233519 | 74 | 207 | 3.0 | 11.0 | 0.00 | 0.00 | 0.00 | 39 | 1008.0 |
| 20260505233034 | 74 | 260 | 3.0 | 11.0 | 0.00 | 0.00 | 0.00 | 38 | 1008.0 |
| 20260505232514 | 74 | 0 | 0.0 | 6.0 | 0.00 | 0.00 | 0.00 | 39 | 1007.9 |
| 20260505232016 | 74 | 211 | 2.0 | 10.0 | 0.00 | 0.00 | 0.00 | 38 | 1007.9 |
| 20260505231533 | 74 | 258 | 2.0 | 10.0 | 0.00 | 0.00 | 0.00 | 38 | 1007.9 |
| 20260505231016 | 74 | 255 | 3.0 | 10.0 | 0.00 | 0.00 | 0.00 | 38 | 1007.9 |
| 20260505230516 | 74 | 241 | 2.0 | 8.0 | 0.00 | 0.00 | 0.00 | 38 | 1007.8 |
| 20260505230030 | 74 | 276 | 1.0 | 7.0 | 0.00 | 0.00 | 0.00 | 37 | 1007.8 |
| 20260505225516 | 74 | 38 | 2.0 | 8.0 | 0.00 | 0.00 | 0.00 | 36 | 1007.7 |
| 20260505225014 | 74 | 0 | 1.0 | 8.0 | 0.00 | 0.00 | 0.00 | 36 | 1007.6 |
| 20260505224533 | 74 | 257 | 2.0 | 8.0 | 0.00 | 0.00 | 0.00 | 36 | 1007.6 |
| 20260505224021 | 74 | 98 | 1.0 | 6.0 | 0.00 | 0.00 | 0.00 | 36 | 1007.4 |
| 20260505223516 | 74 | 339 | 1.0 | 9.0 | 0.00 | 0.00 | 0.00 | 36 | 1007.6 |
| 20260505223029 | 74 | 212 | 2.0 | 16.0 | 0.00 | 0.00 | 0.00 | 36 | 1007.6 |
| 20260505222516 | 74 | 88 | 4.0 | 16.0 | 0.00 | 0.00 | 0.00 | 36 | 1007.5 |
| 20260505222015 | 74 | 319 | 7.0 | 16.0 | 0.00 | 0.00 | 0.00 | 36 | 1007.5 |
| 20260505221530 | 74 | 242 | 4.0 | 19.0 | 0.00 | 0.00 | 0.00 | 36 | 1007.6 |
| 20260505221016 | 73 | 277 | 6.0 | 19.0 | 0.00 | 0.00 | 0.00 | 38 | 1007.6 |
| 20260505220514 | 72 | 281 | 5.0 | 13.0 | 0.00 | 0.00 | 0.00 | 42 | 1007.6 |
| 20260505220031 | 71 | 170 | 5.0 | 12.0 | 0.00 | 0.00 | 0.00 | 44 | 1007.4 |
| 20260505215514 | 71 | 326 | 3.0 | 10.0 | 0.00 | 0.00 | 0.00 | 46 | 1007.4 |
| 20260505215014 | 70 | 184 | 1.0 | 5.0 | 0.00 | 0.00 | 0.00 | 52 | 1007.4 |
| 20260505214542 | 70 | 266 | 0.0 | 3.0 | 0.00 | 0.00 | 0.00 | 52 | 1007.4 |
| 20260505214015 | 70 | 0 | 0.0 | 4.0 | 0.00 | 0.00 | 0.00 | 54 | 1007.4 |
| 20260505213515 | 70 | 0 | 1.0 | 11.0 | 0.00 | 0.00 | 0.00 | 54 | 1007.3 |
| 20260505213030 | 71 | 298 | 3.0 | 19.0 | 0.00 | 0.00 | 0.00 | 47 | 1007.5 |
| 20260505212518 | 73 | 337 | 7.0 | 19.0 | 0.00 | 0.00 | 0.00 | 42 | 1007.6 |
| 20260505212015 | 75 | 327 | 8.0 | 19.0 | 0.00 | 0.00 | 0.00 | 37 | 1008.1 |
| 20260505211540 | 76 | 339 | 7.0 | 19.0 | 0.00 | 0.00 | 0.00 | 33 | 1007.7 |
| 20260505211014 | 76 | 323 | 2.0 | 14.0 | 0.00 | 0.00 | 0.00 | 33 | 1007.3 |
| 20260505210516 | 76 | 318 | 5.0 | 14.0 | 0.00 | 0.00 | 0.00 | 33 | 1007.1 |
| 20260505210031 | 76 | 56 | 3.0 | 13.0 | 0.00 | 0.00 | 0.00 | 32 | 1006.9 |
| 20260505205517 | 76 | 340 | 3.0 | 16.0 | 0.00 | 0.00 | 0.00 | 33 | 1007.1 |
| 20260505205017 | 76 | 315 | 4.0 | 16.0 | 0.00 | 0.00 | 0.00 | 33 | 1006.9 |
| 20260505204533 | 77 | 297 | 5.0 | 16.0 | 0.00 | 0.00 | 0.00 | 32 | 1007.0 |
| 20260505204016 | 77 | 207 | 4.0 | 20.0 | 0.00 | 0.00 | 0.00 | 32 | 1006.9 |
| 20260505203516 | 77 | 265 | 6.0 | 24.0 | 0.00 | 0.00 | 0.00 | 32 | 1006.9 |
| 20260505203046 | 78 | 207 | 6.0 | 24.0 | 0.00 | 0.00 | 0.00 | 32 | 1006.9 |
| 20260505202514 | 79 | 277 | 9.0 | 20.0 | 0.00 | 0.00 | 0.00 | 31 | 1006.7 |
| 20260505202014 | 80 | 296 | 6.0 | 20.0 | 0.00 | 0.00 | 0.00 | 30 | 1006.7 |
| 20260505201531 | 79 | 277 | 8.0 | 24.0 | 0.00 | 0.00 | 0.00 | 30 | 1006.7 |
| 20260505201018 | 79 | 267 | 9.0 | 24.0 | 0.00 | 0.00 | 0.00 | 30 | 1006.6 |
| 20260505200515 | 79 | 298 | 5.0 | 24.0 | 0.00 | 0.00 | 0.00 | 31 | 1006.7 |
| 20260505200031 | 78 | 214 | 12.0 | 24.0 | 0.00 | 0.00 | 0.00 | 31 | 1006.8 |
| 20260505195515 | 79 | 333 | 9.0 | 24.0 | 0.00 | 0.00 | 0.00 | 30 | 1006.8 |
| 20260505195015 | 79 | 165 | 11.0 | 24.0 | 0.00 | 0.00 | 0.00 | 30 | 1006.7 |
| 20260505194529 | 79 | 300 | 3.0 | 25.0 | 0.00 | 0.00 | 0.00 | 31 | 1006.7 |
| 20260505194016 | 78 | 167 | 8.0 | 25.0 | 0.00 | 0.00 | 0.00 | 30 | 1006.9 |
| 20260505193515 | 78 | 334 | 5.0 | 20.0 | 0.00 | 0.00 | 0.00 | 31 | 1007.2 |
| 20260505193030 | 78 | 317 | 8.0 | 20.0 | 0.00 | 0.00 | 0.00 | 31 | 1007.1 |
| 20260505192516 | 78 | 309 | 8.0 | 20.0 | 0.00 | 0.00 | 0.00 | 31 | 1007.3 |
| 20260505192015 | 79 | 315 | 10.0 | 20.0 | 0.00 | 0.00 | 0.00 | 30 | 1007.3 |
| 20260505191530 | 78 | 242 | 4.0 | 20.0 | 0.00 | 0.00 | 0.00 | 31 | 1007.3 |
| 20260505191017 | 77 | 242 | 7.0 | 19.0 | 0.00 | 0.00 | 0.00 | 31 | 1007.4 |
| 20260505190515 | 78 | 241 | 5.0 | 23.0 | 0.00 | 0.00 | 0.00 | 31 | 1007.5 |
| 20260505190034 | 78 | 321 | 10.0 | 26.0 | 0.00 | 0.00 | 0.00 | 32 | 1007.7 |
| 20260505185515 | 78 | 276 | 7.0 | 26.0 | 0.00 | 0.00 | 0.00 | 31 | 1007.6 |
| 20260505185014 | 78 | 325 | 8.0 | 19.0 | 0.00 | 0.00 | 0.00 | 31 | 1007.7 |
| 20260505184543 | 78 | 318 | 9.0 | 18.0 | 0.00 | 0.00 | 0.00 | 31 | 1007.9 |
| 20260505184016 | 77 | 316 | 5.0 | 20.0 | 0.00 | 0.00 | 0.00 | 31 | 1007.6 |
| 20260505183513 | 78 | 304 | 10.0 | 25.0 | 0.00 | 0.00 | 0.00 | 31 | 1008.2 |
| 20260505183039 | 78 | 327 | 5.0 | 25.0 | 0.00 | 0.00 | 0.00 | 32 | 1008.0 |
| 20260505182516 | 77 | 179 | 11.0 | 25.0 | 0.00 | 0.00 | 0.00 | 31 | 1008.1 |
| 20260505182014 | 77 | 294 | 7.0 | 25.0 | 0.00 | 0.00 | 0.00 | 31 | 1008.0 |
| 20260505181531 | 77 | 285 | 7.0 | 25.0 | 0.00 | 0.00 | 0.00 | 32 | 1008.0 |
| 20260505181014 | 78 | 317 | 10.0 | 21.0 | 0.00 | 0.00 | 0.00 | 31 | 1008.3 |
| 20260505180518 | 77 | 285 | 7.0 | 25.0 | 0.00 | 0.00 | 0.00 | 32 | 1008.0 |
| 20260505180032 | 77 | 306 | 9.0 | 25.0 | 0.00 | 0.00 | 0.00 | 31 | 1008.3 |
| 20260505175514 | 78 | 325 | 6.0 | 20.0 | 0.00 | 0.00 | 0.00 | 30 | 1008.1 |
| 20260505175014 | 77 | 342 | 8.0 | 20.0 | 0.00 | 0.00 | 0.00 | 31 | 1008.1 |
| 20260505174530 | 77 | 298 | 8.0 | 24.0 | 0.00 | 0.00 | 0.00 | 33 | 1008.2 |
| 20260505174015 | 77 | 267 | 9.0 | 24.0 | 0.00 | 0.00 | 0.00 | 33 | 1008.1 |
| 20260505173514 | 77 | 340 | 8.0 | 22.0 | 0.00 | 0.00 | 0.00 | 34 | 1008.2 |
| 20260505173031 | 76 | 319 | 8.0 | 17.0 | 0.00 | 0.00 | 0.00 | 34 | 1008.2 |
| 20260505172514 | 76 | 348 | 6.0 | 21.0 | 0.00 | 0.00 | 0.00 | 35 | 1008.3 |
| 20260505172014 | 76 | 323 | 11.0 | 21.0 | 0.00 | 0.00 | 0.00 | 35 | 1008.1 |
| 20260505171530 | 76 | 13 | 7.0 | 16.0 | 0.00 | 0.00 | 0.00 | 35 | 1008.1 |
| 20260505171015 | 75 | 346 | 7.0 | 15.0 | 0.00 | 0.00 | 0.00 | 36 | 1008.1 |
| 20260505170515 | 76 | 101 | 7.0 | 19.0 | 0.00 | 0.00 | 0.00 | 37 | 1008.2 |
| 20260505170036 | 75 | 318 | 6.0 | 23.0 | 0.00 | 0.00 | 0.00 | 36 | 1008.4 |
| 20260505165515 | 76 | 63 | 9.0 | 24.0 | 0.00 | 0.00 | 0.00 | 36 | 1008.6 |
| 20260505165015 | 77 | 304 | 7.0 | 24.0 | 0.00 | 0.00 | 0.00 | 35 | 1008.5 |
| 20260505164536 | 77 | 100 | 4.0 | 14.0 | 0.00 | 0.00 | 0.00 | 35 | 1008.3 |
| 20260505164016 | 76 | 211 | 5.0 | 17.0 | 0.00 | 0.00 | 0.00 | 38 | 1008.4 |
| 20260505163518 | 75 | 270 | 8.0 | 20.0 | 0.00 | 0.00 | 0.00 | 39 | 1008.4 |
| 20260505163033 | 74 | 15 | 9.0 | 20.0 | 0.00 | 0.00 | 0.00 | 39 | 1008.7 |
| 20260505162520 | 74 | 31 | 9.0 | 20.0 | 0.00 | 0.00 | 0.00 | 40 | 1008.8 |
| 20260505162019 | 74 | 294 | 11.0 | 20.0 | 0.00 | 0.00 | 0.00 | 40 | 1008.7 |
| 20260505161539 | 74 | 237 | 6.0 | 16.0 | 0.00 | 0.00 | 0.00 | 41 | 1008.9 |
| 20260505161022 | 74 | 323 | 8.0 | 18.0 | 0.00 | 0.00 | 0.00 | 41 | 1008.9 |
| 20260505160519 | 74 | 326 | 6.0 | 18.0 | 0.00 | 0.00 | 0.00 | 41 | 1009.0 |
| 20260505153040 | 73 | 225 | 2.0 | 15.0 | 0.00 | 0.00 | 0.00 | 43 | 1009.4 |
| 20260505152514 | 73 | 298 | 5.0 | 16.0 | 0.00 | 0.00 | 0.00 | 44 | 1009.4 |
| 20260505152015 | 72 | 291 | 8.0 | 16.0 | 0.00 | 0.00 | 0.00 | 45 | 1009.3 |
| 20260505151545 | 73 | 293 | 6.0 | 15.0 | 0.00 | 0.00 | 0.00 | 44 | 1009.4 |
| 20260505151015 | 72 | 288 | 7.0 | 15.0 | 0.00 | 0.00 | 0.00 | 45 | 1009.3 |
| 20260505150516 | 72 | 317 | 5.0 | 15.0 | 0.00 | 0.00 | 0.00 | 44 | 1009.5 |
| 20260505140518 | 70 | 329 | 3.0 | 11.0 | 0.00 | 0.00 | 0.00 | 46 | 1009.5 |
| 20260505125015 | 67 | 304 | 7.0 | 19.0 | 0.00 | 0.00 | 0.00 | 51 | 1009.9 |
| 20260505124537 | 67 | 321 | 5.0 | 19.0 | 0.00 | 0.00 | 0.00 | 51 | 1009.7 |
| 20260505124018 | 67 | 327 | 5.0 | 14.0 | 0.00 | 0.00 | 0.00 | 51 | 1009.6 |
| 20260505123520 | 66 | 304 | 5.0 | 14.0 | 0.00 | 0.00 | 0.00 | 52 | 1009.5 |
| 20260505123034 | 66 | 250 | 1.0 | 12.0 | 0.00 | 0.00 | 0.00 | 53 | 1009.5 |
| 20260505122515 | 66 | 240 | 4.0 | 16.0 | 0.00 | 0.00 | 0.00 | 52 | 1009.7 |
| 20260505122018 | 66 | 313 | 4.0 | 16.0 | 0.00 | 0.00 | 0.00 | 53 | 1009.6 |
| 20260505121543 | 65 | 229 | 3.0 | 16.0 | 0.00 | 0.00 | 0.00 | 54 | 1009.6 |
| 20260505121019 | 65 | 313 | 5.0 | 11.0 | 0.00 | 0.00 | 0.00 | 54 | 1009.4 |
| 20260505120518 | 65 | 252 | 3.0 | 11.0 | 0.00 | 0.00 | 0.00 | 54 | 1009.7 |
| 20260505120035 | 65 | 285 | 4.0 | 11.0 | 0.00 | 0.00 | 0.00 | 55 | 1009.7 |
| 20260505115514 | 65 | 20 | 3.0 | 10.0 | 0.00 | 0.00 | 0.00 | 55 | 1009.7 |
| 20260505115015 | 64 | 301 | 3.0 | 9.0 | 0.00 | 0.00 | 0.00 | 55 | 1009.6 |
| 20260505114535 | 64 | 235 | 3.0 | 11.0 | 0.00 | 0.00 | 0.00 | 56 | 1009.5 |
| 20260505114016 | 64 | 156 | 4.0 | 11.0 | 0.00 | 0.00 | 0.00 | 56 | 1009.6 |
| 20260505113517 | 64 | 266 | 4.0 | 10.0 | 0.00 | 0.00 | 0.00 | 57 | 1009.5 |
| 20260505113041 | 64 | 221 | 2.0 | 11.0 | 0.00 | 0.00 | 0.00 | 57 | 1009.7 |
| 20260505112517 | 63 | 257 | 3.0 | 11.0 | 0.00 | 0.00 | 0.00 | 57 | 1009.7 |
| 20260505112015 | 63 | 0 | 3.0 | 9.0 | 0.00 | 0.00 | 0.00 | 58 | 1009.5 |
| 20260505111542 | 63 | 217 | 1.0 | 7.0 | 0.00 | 0.00 | 0.00 | 59 | 1009.5 |
| 20260505111015 | 62 | 257 | 2.0 | 6.0 | 0.00 | 0.00 | 0.00 | 60 | 1009.5 |
| 20260505110514 | 62 | 194 | 2.0 | 5.0 | 0.00 | 0.00 | 0.00 | 61 | 1009.5 |
| 20260505102017 | 55 | 0 | 0.0 | 5.0 | 0.00 | 0.00 | 0.00 | 73 | 1009.1 |
| 20260505101536 | 55 | 0 | 0.0 | 3.0 | 0.00 | 0.00 | 0.00 | 73 | 1009.1 |
| 20260505101017 | 56 | 195 | 0.0 | 5.0 | 0.00 | 0.00 | 0.00 | 71 | 1009.0 |
| 20260505100517 | 56 | 218 | 2.0 | 5.0 | 0.00 | 0.00 | 0.00 | 69 | 1009.1 |
| 20260505100036 | 56 | 182 | 2.0 | 4.0 | 0.00 | 0.00 | 0.00 | 69 | 1009.1 |
| 20260505095517 | 57 | 191 | 1.0 | 4.0 | 0.00 | 0.00 | 0.00 | 68 | 1009.0 |
| 20260505095017 | 58 | 196 | 2.0 | 4.0 | 0.00 | 0.00 | 0.00 | 66 | 1009.0 |
| 20260505094532 | 58 | 223 | 0.0 | 3.0 | 0.00 | 0.00 | 0.00 | 65 | 1009.0 |
| 20260505094017 | 59 | 0 | 0.0 | 7.0 | 0.00 | 0.00 | 0.00 | 63 | 1008.9 |
| 20260505093515 | 59 | 203 | 0.0 | 7.0 | 0.00 | 0.00 | 0.00 | 62 | 1009.1 |
| 20260505093034 | 59 | 304 | 2.0 | 7.0 | 0.00 | 0.00 | 0.00 | 63 | 1009.0 |
| 20260505092516 | 59 | 225 | 1.0 | 5.0 | 0.00 | 0.00 | 0.00 | 63 | 1009.1 |
| 20260505092015 | 59 | 0 | 0.0 | 5.0 | 0.00 | 0.00 | 0.00 | 64 | 1009.2 |
| 20260505091530 | 59 | 0 | 0.0 | 5.0 | 0.00 | 0.00 | 0.00 | 64 | 1009.2 |